When you browse on this site, cookies collect data to enhance your experience and personalize the content and advertising you see.
Visit our Privacy Policy to learn more. By continuing to use the site, you agree to this use of cookies and data.
  • In Czech Republic
  • List of Countries
  • For 7 days
  • Water Temperature
  • Weather Map
  • Weather Widgets
  • user-avatar
    Login

    Hourly Weather Cioara

    Today, 3 June, Wednesday

    Time Temperature Precipitation Wind Pressure Humidity
    00:00 +9°C° 0 mm 0 mps 751 mmHg 83%
    01:00 +8°C° 0 mm 0 mps 751 mmHg 84%
    02:00 +8°C° 0 mm 0 mps 751 mmHg 85%
    03:00 +8°C° 0 mm 0 mps 750 mmHg 85%
    04:00 +8°C° 0 mm 0 mps 750 mmHg 86%
    05:00 +8°C° 0 mm 0 mps 750 mmHg 86%
    06:00 +11°C° 0 mm 1 mps 750 mmHg 80%
    07:00 +12°C° 0 mm 1 mps 750 mmHg 74%
    08:00 +14°C° 0 mm 2 mps 750 mmHg 68%
    09:00 +15°C° 0 mm 2 mps 750 mmHg 64%
    10:00 +16°C° 0 mm 2 mps 750 mmHg 59%
    11:00 +18°C° 0 mm 2 mps 750 mmHg 55%
    12:00 +18°C° 0.2 mm 2 mps 750 mmHg 54%
    13:00 +19°C° 0.2 mm 2 mps 750 mmHg 53%
    14:00 +19°C° 0.2 mm 2 mps 750 mmHg 53%
    15:00 +19°C° 0.1 mm 2 mps 749 mmHg 53%
    16:00 +19°C° 0.1 mm 2 mps 749 mmHg 53%
    17:00 +19°C° 0.1 mm 3 mps 749 mmHg 53%
    18:00 +18°C° 0 mm 2 mps 749 mmHg 58%
    19:00 +17°C° 0 mm 2 mps 749 mmHg 64%
    20:00 +15°C° 0 mm 2 mps 749 mmHg 69%
    21:00 +15°C° 0.1 mm 2 mps 749 mmHg 72%
    22:00 +13°C° 0.1 mm 3 mps 749 mmHg 74%
    23:00 +12°C° 0.1 mm 3 mps 749 mmHg 77%

    Tomorrow, 4 June, Thursday

    Time Temperature Precipitation Wind Pressure Humidity
    00:00 +12°C° 0 mm 3 mps 749 mmHg 79%
    01:00 +11°C° 0 mm 3 mps 749 mmHg 81%
    02:00 +11°C° 0 mm 3 mps 749 mmHg 82%
    03:00 +11°C° 0 mm 3 mps 749 mmHg 84%
    04:00 +11°C° 0 mm 3 mps 749 mmHg 85%
    05:00 +10°C° 0 mm 2 mps 749 mmHg 86%
    06:00 +13°C° 0 mm 3 mps 749 mmHg 80%
    07:00 +16°C° 0 mm 3 mps 749 mmHg 73%
    08:00 +18°C° 0 mm 3 mps 749 mmHg 67%
    09:00 +19°C° 0.2 mm 3 mps 749 mmHg 61%
    10:00 +20°C° 0.2 mm 3 mps 749 mmHg 56%
    11:00 +22°C° 0.2 mm 3 mps 749 mmHg 51%
    12:00 +22°C° 0.1 mm 4 mps 749 mmHg 49%
    13:00 +23°C° 0.1 mm 4 mps 749 mmHg 46%
    14:00 +25°C° 0.1 mm 4 mps 749 mmHg 43%
    15:00 +25°C° 0 mm 4 mps 749 mmHg 45%
    16:00 +25°C° 0 mm 4 mps 749 mmHg 46%
    17:00 +25°C° 0 mm 4 mps 749 mmHg 47%
    18:00 +22°C° 0 mm 4 mps 749 mmHg 53%
    19:00 +21°C° 0 mm 4 mps 749 mmHg 59%
    20:00 +19°C° 0 mm 4 mps 749 mmHg 65%
    21:00 +19°C° 0 mm 4 mps 749 mmHg 65%
    22:00 +18°C° 0 mm 3 mps 749 mmHg 66%
    23:00 +18°C° 0 mm 3 mps 750 mmHg 67%

    Day after tomorrow, 5 June, Friday

    Time Temperature Precipitation Wind Pressure Humidity
    00:00 +18°C° 0 mm 3 mps 750 mmHg 71%
    01:00 +17°C° 0 mm 3 mps 750 mmHg 75%
    02:00 +16°C° 0 mm 3 mps 750 mmHg 79%
    03:00 +16°C° 0 mm 3 mps 750 mmHg 80%
    04:00 +16°C° 0 mm 3 mps 750 mmHg 81%
    05:00 +16°C° 0 mm 3 mps 750 mmHg 82%
    06:00 +18°C° 0 mm 3 mps 750 mmHg 76%
    07:00 +20°C° 0 mm 3 mps 750 mmHg 69%
    08:00 +22°C° 0 mm 4 mps 750 mmHg 63%
    09:00 +25°C° 0 mm 5 mps 750 mmHg 57%
    10:00 +27°C° 0 mm 6 mps 750 mmHg 51%
    11:00 +29°C° 0 mm 7 mps 750 mmHg 45%
    12:00 +29°C° 0 mm 7 mps 750 mmHg 44%
    13:00 +30°C° 0 mm 7 mps 750 mmHg 43%
    14:00 +31°C° 0 mm 8 mps 750 mmHg 41%
    15:00 +30°C° 0 mm 7 mps 750 mmHg 43%
    16:00 +30°C° 0 mm 6 mps 750 mmHg 46%
    17:00 +29°C° 0 mm 5 mps 749 mmHg 48%
    18:00 +27°C° 0 mm 5 mps 750 mmHg 53%
    19:00 +25°C° 0 mm 5 mps 750 mmHg 59%
    20:00 +23°C° 0 mm 5 mps 750 mmHg 65%
    21:00 +22°C° 0 mm 4 mps 750 mmHg 68%
    22:00 +21°C° 0 mm 4 mps 751 mmHg 71%
    23:00 +21°C° 0 mm 4 mps 751 mmHg 74%

    6 June, Saturday

    Time Temperature Precipitation Wind Pressure Humidity
    00:00 +20°C° 0 mm 4 mps 751 mmHg 76%
    01:00 +20°C° 0 mm 4 mps 751 mmHg 77%
    02:00 +19°C° 0 mm 4 mps 752 mmHg 79%
    03:00 +19°C° 0 mm 4 mps 752 mmHg 79%
    04:00 +18°C° 0 mm 4 mps 752 mmHg 78%
    05:00 +17°C° 0 mm 3 mps 752 mmHg 78%
    06:00 +19°C° 0 mm 3 mps 753 mmHg 73%
    07:00 +20°C° 0 mm 3 mps 753 mmHg 68%
    08:00 +22°C° 0 mm 3 mps 753 mmHg 63%
    09:00 +25°C° 0 mm 4 mps 754 mmHg 58%
    10:00 +26°C° 0 mm 4 mps 754 mmHg 52%
    11:00 +28°C° 0 mm 4 mps 754 mmHg 47%
    12:00 +28°C° 0 mm 4 mps 754 mmHg 44%
    13:00 +29°C° 0 mm 5 mps 754 mmHg 42%
    14:00 +30°C° 0 mm 5 mps 754 mmHg 39%
    15:00 +29°C° 0 mm 5 mps 754 mmHg 41%
    16:00 +29°C° 0 mm 5 mps 754 mmHg 42%
    17:00 +29°C° 0 mm 4 mps 754 mmHg 44%
    18:00 +27°C° 0 mm 4 mps 754 mmHg 48%
    19:00 +25°C° 0 mm 4 mps 754 mmHg 53%
    20:00 +22°C° 0 mm 4 mps 754 mmHg 57%
    21:00 +21°C° 0 mm 4 mps 755 mmHg 64%
    22:00 +19°C° 0 mm 3 mps 755 mmHg 70%
    23:00 +18°C° 0 mm 3 mps 755 mmHg 77%

    7 June, Sunday

    Time Temperature Precipitation Wind Pressure Humidity
    00:00 +18°C° 0 mm 3 mps 755 mmHg 82%
    01:00 +17°C° 0 mm 3 mps 755 mmHg 87%
    02:00 +17°C° 0 mm 2 mps 755 mmHg 92%
    03:00 +16°C° 0 mm 2 mps 755 mmHg 93%
    04:00 +16°C° 0 mm 2 mps 755 mmHg 94%
    05:00 +16°C° 0 mm 2 mps 755 mmHg 96%
    06:00 +18°C° 0 mm 3 mps 755 mmHg 85%
    07:00 +20°C° 0 mm 4 mps 755 mmHg 75%
    08:00 +22°C° 0 mm 5 mps 756 mmHg 64%
    09:00 +25°C° 0 mm 5 mps 756 mmHg 57%
    10:00 +27°C° 0 mm 5 mps 756 mmHg 50%
    11:00 +29°C° 0 mm 5 mps 755 mmHg 43%
    12:00 +29°C° 0 mm 6 mps 755 mmHg 41%
    13:00 +30°C° 0 mm 6 mps 755 mmHg 39%
    14:00 +32°C° 0 mm 7 mps 754 mmHg 36%
    15:00 +30°C° 0 mm 6 mps 754 mmHg 39%
    16:00 +29°C° 0 mm 6 mps 754 mmHg 41%
    17:00 +29°C° 0 mm 6 mps 753 mmHg 44%
    18:00 +27°C° 0 mm 5 mps 753 mmHg 51%
    19:00 +25°C° 0 mm 4 mps 753 mmHg 58%
    20:00 +21°C° 0 mm 4 mps 753 mmHg 64%
    21:00 +20°C° 0 mm 3 mps 754 mmHg 70%
    22:00 +19°C° 0 mm 3 mps 754 mmHg 75%
    23:00 +18°C° 0 mm 2 mps 754 mmHg 80%

    8 June, Monday

    Time Temperature Precipitation Wind Pressure Humidity
    00:00 +17°C° 0 mm 2 mps 754 mmHg 84%
    01:00 +17°C° 0 mm 2 mps 753 mmHg 87%
    02:00 +16°C° 0 mm 2 mps 753 mmHg 90%
    03:00 +16°C° 0 mm 2 mps 753 mmHg 91%
    04:00 +16°C° 0 mm 1 mps 753 mmHg 92%
    05:00 +16°C° 0 mm 1 mps 753 mmHg 93%
    06:00 +18°C° 0 mm 2 mps 753 mmHg 87%
    07:00 +19°C° 0 mm 2 mps 753 mmHg 80%
    08:00 +21°C° 0 mm 3 mps 753 mmHg 73%
    09:00 +24°C° 0 mm 3 mps 754 mmHg 67%
    10:00 +26°C° 0 mm 3 mps 754 mmHg 62%
    11:00 +28°C° 0 mm 3 mps 754 mmHg 56%
    12:00 +29°C° 0 mm 4 mps 753 mmHg 52%
    13:00 +30°C° 0 mm 4 mps 753 mmHg 49%
    14:00 +32°C° 0 mm 5 mps 753 mmHg 45%
    15:00 +30°C° 0 mm 5 mps 753 mmHg 46%
    16:00 +30°C° 0 mm 5 mps 753 mmHg 48%
    17:00 +29°C° 0 mm 5 mps 753 mmHg 49%
    18:00 +27°C° 0 mm 5 mps 753 mmHg 52%
    19:00 +25°C° 0 mm 4 mps 753 mmHg 56%
    20:00 +22°C° 0 mm 4 mps 753 mmHg 59%
    21:00 +21°C° 0 mm 3 mps 753 mmHg 63%
    22:00 +21°C° 0 mm 3 mps 754 mmHg 68%
    23:00 +20°C° 0 mm 2 mps 754 mmHg 72%
    Show more